| time (UTC) | temp F | wind direction | speed MPH | gust MPH | rain 1hr in | rain 24hr in | rain mn in | humidity % | barometer mb |
| 20260509162513 | 75 | 46 | 4.0 | 11.0 | 0.00 | 0.00 | 0.00 | 21 | 1013.5 |
| 20260509162012 | 75 | 66 | 4.0 | 11.0 | 0.00 | 0.00 | 0.00 | 22 | 1013.4 |
| 20260509161532 | 75 | 53 | 2.0 | 7.0 | 0.00 | 0.00 | 0.00 | 22 | 1013.4 |
| 20260509161012 | 75 | 57 | 2.0 | 8.0 | 0.00 | 0.00 | 0.00 | 22 | 1013.5 |
| 20260509160508 | 74 | 26 | 2.0 | 8.0 | 0.00 | 0.00 | 0.00 | 21 | 1013.4 |
| 20260509160028 | 74 | 289 | 2.0 | 8.0 | 0.00 | 0.00 | 0.00 | 23 | 1013.5 |
| 20260509155009 | 74 | 300 | 3.0 | 8.0 | 0.00 | 0.00 | 0.00 | 22 | 1013.4 |
| 20260509154006 | 73 | 329 | 1.0 | 11.0 | 0.00 | 0.00 | 0.00 | 24 | 1013.5 |
| 20260509153507 | 72 | 299 | 3.0 | 11.0 | 0.00 | 0.00 | 0.00 | 23 | 1013.6 |
| 20260509151017 | 72 | 281 | 1.0 | 6.0 | 0.00 | 0.00 | 0.00 | 22 | 1013.7 |
| 20260509150511 | 72 | 324 | 2.0 | 7.0 | 0.00 | 0.00 | 0.00 | 24 | 1013.7 |
| 20260509150037 | 72 | 70 | 1.0 | 7.0 | 0.00 | 0.00 | 0.00 | 25 | 1013.6 |
| 20260509145510 | 71 | 329 | 1.0 | 5.0 | 0.00 | 0.00 | 0.00 | 21 | 1013.6 |
| 20260509145011 | 71 | 322 | 2.0 | 6.0 | 0.00 | 0.00 | 0.00 | 23 | 1013.6 |
| 20260509144528 | 71 | 9 | 2.0 | 10.0 | 0.00 | 0.00 | 0.00 | 24 | 1013.7 |
| 20260509144012 | 70 | 322 | 3.0 | 10.0 | 0.00 | 0.00 | 0.00 | 25 | 1013.7 |
| 20260509135508 | 65 | 244 | 2.0 | 10.0 | 0.00 | 0.00 | 0.00 | 35 | 1013.5 |
| 20260509135017 | 64 | 254 | 2.0 | 6.0 | 0.00 | 0.00 | 0.00 | 36 | 1013.5 |
| 20260509134524 | 62 | 350 | 1.0 | 8.0 | 0.00 | 0.00 | 0.00 | 37 | 1013.5 |
| 20260509134009 | 61 | 302 | 1.0 | 8.0 | 0.00 | 0.00 | 0.00 | 41 | 1013.5 |
| 20260509133509 | 59 | 283 | 2.0 | 8.0 | 0.00 | 0.00 | 0.00 | 42 | 1013.6 |
| 20260509133024 | 58 | 298 | 1.0 | 4.0 | 0.00 | 0.00 | 0.00 | 44 | 1013.4 |
| 20260509132511 | 56 | 292 | 1.0 | 4.0 | 0.00 | 0.00 | 0.00 | 47 | 1013.3 |
| 20260509132010 | 55 | 270 | 0.0 | 4.0 | 0.00 | 0.00 | 0.00 | 58 | 1013.4 |
| 20260509131525 | 54 | 270 | 0.0 | 4.0 | 0.00 | 0.00 | 0.00 | 53 | 1013.4 |
| 20260509131010 | 53 | 270 | 0.0 | 8.0 | 0.00 | 0.00 | 0.00 | 56 | 1013.4 |
| 20260509130508 | 52 | 270 | 1.0 | 9.0 | 0.00 | 0.00 | 0.00 | 50 | 1013.4 |
| 20260509130025 | 51 | 270 | 2.0 | 9.0 | 0.00 | 0.00 | 0.00 | 56 | 1013.2 |
| 20260509125514 | 50 | 270 | 0.0 | 2.0 | 0.00 | 0.00 | 0.00 | 63 | 1013.3 |
| 20260509125008 | 50 | 282 | 0.0 | 1.0 | 0.00 | 0.00 | 0.00 | 67 | 1013.2 |
| 20260509124525 | 50 | 281 | 0.0 | 1.0 | 0.00 | 0.00 | 0.00 | 67 | 1013.1 |
| 20260509124009 | 50 | 283 | 0.0 | 1.0 | 0.00 | 0.00 | 0.00 | 68 | 1013.1 |
| 20260509123509 | 50 | 270 | 0.0 | 3.0 | 0.00 | 0.00 | 0.00 | 67 | 1013.1 |
| 20260509123025 | 50 | 270 | 0.0 | 3.0 | 0.00 | 0.00 | 0.00 | 63 | 1013.0 |
| 20260509122510 | 50 | 270 | 0.0 | 2.0 | 0.00 | 0.00 | 0.00 | 60 | 1012.9 |
| 20260509122010 | 50 | 279 | 0.0 | 2.0 | 0.00 | 0.00 | 0.00 | 62 | 1012.8 |
| 20260509121520 | 50 | 279 | 0.0 | 2.0 | 0.00 | 0.00 | 0.00 | 62 | 1012.8 |
| 20260509121012 | 50 | 280 | 0.0 | 2.0 | 0.00 | 0.00 | 0.00 | 63 | 1012.7 |
| 20260509120514 | 50 | 281 | 0.0 | 2.0 | 0.00 | 0.00 | 0.00 | 63 | 1012.7 |
| 20260509120030 | 50 | 283 | 0.0 | 1.0 | 0.00 | 0.00 | 0.00 | 63 | 1012.7 |
| 20260509115511 | 50 | 283 | 0.0 | 3.0 | 0.00 | 0.00 | 0.00 | 63 | 1012.8 |
| 20260509115010 | 51 | 270 | 0.0 | 3.0 | 0.00 | 0.01 | 0.00 | 64 | 1012.9 |
| 20260509114513 | 50 | 270 | 0.0 | 3.0 | 0.00 | 0.01 | 0.00 | 59 | 1012.6 |
| 20260509112508 | 49 | 270 | 1.0 | 5.0 | 0.00 | 0.01 | 0.00 | 64 | 1012.3 |
| 20260509112008 | 49 | 285 | 1.0 | 5.0 | 0.00 | 0.01 | 0.00 | 65 | 1012.2 |
| 20260509111521 | 48 | 279 | 0.0 | 5.0 | 0.00 | 0.01 | 0.00 | 66 | 1012.1 |
| 20260509111011 | 48 | 287 | 0.0 | 5.0 | 0.00 | 0.01 | 0.00 | 68 | 1011.9 |
| 20260509110509 | 48 | 275 | 1.0 | 5.0 | 0.00 | 0.01 | 0.00 | 67 | 1011.9 |
| 20260509110026 | 47 | 279 | 0.0 | 4.0 | 0.00 | 0.01 | 0.00 | 70 | 1011.9 |
| 20260509104510 | 48 | 279 | 0.0 | 1.0 | 0.00 | 0.01 | 0.00 | 72 | 1011.9 |
| 20260509104007 | 48 | 279 | 0.0 | 1.0 | 0.00 | 0.01 | 0.00 | 73 | 1012.0 |
| 20260509103505 | 48 | 279 | 0.0 | 2.0 | 0.00 | 0.01 | 0.00 | 72 | 1012.0 |
| 20260509103013 | 48 | 279 | 0.0 | 2.0 | 0.00 | 0.01 | 0.00 | 72 | 1011.9 |
| 20260509102506 | 48 | 279 | 0.0 | 2.0 | 0.00 | 0.01 | 0.00 | 72 | 1011.9 |
| 20260509102009 | 49 | 279 | 0.0 | 2.0 | 0.00 | 0.01 | 0.00 | 71 | 1011.9 |
| 20260509101520 | 49 | 279 | 0.0 | 3.0 | 0.00 | 0.01 | 0.00 | 71 | 1011.9 |
| 20260509101010 | 49 | 279 | 0.0 | 3.0 | 0.00 | 0.01 | 0.00 | 71 | 1011.9 |
| 20260509100508 | 49 | 286 | 0.0 | 2.0 | 0.00 | 0.01 | 0.00 | 71 | 1011.9 |
| 20260509100024 | 49 | 287 | 0.0 | 2.0 | 0.00 | 0.01 | 0.00 | 70 | 1012.0 |
| 20260509095515 | 49 | 287 | 0.0 | 3.0 | 0.00 | 0.01 | 0.00 | 70 | 1011.9 |
| 20260509095008 | 49 | 287 | 0.0 | 3.0 | 0.00 | 0.01 | 0.00 | 69 | 1011.9 |
| 20260509094526 | 50 | 275 | 0.0 | 2.0 | 0.00 | 0.01 | 0.00 | 70 | 1011.8 |
| 20260509093012 | 50 | 279 | 0.0 | 2.0 | 0.00 | 0.01 | 0.00 | 72 | 1011.8 |
| 20260509092506 | 50 | 279 | 1.0 | 2.0 | 0.00 | 0.01 | 0.00 | 72 | 1011.8 |
| 20260509092012 | 50 | 279 | 0.0 | 2.0 | 0.00 | 0.01 | 0.00 | 69 | 1011.8 |
| 20260509091515 | 50 | 279 | 0.0 | 2.0 | 0.00 | 0.01 | 0.00 | 68 | 1011.8 |
| 20260509091006 | 50 | 279 | 0.0 | 3.0 | 0.00 | 0.01 | 0.00 | 69 | 1011.8 |
| 20260509090508 | 51 | 279 | 0.0 | 4.0 | 0.00 | 0.01 | 0.00 | 68 | 1011.9 |
| 20260509090022 | 51 | 286 | 0.0 | 4.0 | 0.00 | 0.01 | 0.00 | 68 | 1011.9 |
| 20260509085508 | 51 | 279 | 0.0 | 4.0 | 0.00 | 0.01 | 0.00 | 68 | 1011.8 |
| 20260509085009 | 51 | 279 | 1.0 | 4.0 | 0.00 | 0.01 | 0.00 | 68 | 1011.9 |
| 20260509084527 | 51 | 279 | 1.0 | 3.0 | 0.00 | 0.01 | 0.00 | 68 | 1011.9 |
| 20260509084011 | 51 | 279 | 0.0 | 3.0 | 0.00 | 0.01 | 0.00 | 68 | 1011.9 |
| 20260509083513 | 52 | 279 | 0.0 | 3.0 | 0.00 | 0.01 | 0.00 | 68 | 1011.8 |
| 20260509083023 | 52 | 279 | 0.0 | 3.0 | 0.00 | 0.01 | 0.00 | 67 | 1011.8 |
| 20260509082510 | 52 | 279 | 1.0 | 3.0 | 0.00 | 0.01 | 0.00 | 67 | 1011.8 |
| 20260509082011 | 52 | 279 | 0.0 | 3.0 | 0.00 | 0.01 | 0.00 | 67 | 1011.8 |
| 20260509081512 | 53 | 281 | 1.0 | 3.0 | 0.00 | 0.01 | 0.00 | 67 | 1011.9 |
| 20260509081010 | 53 | 282 | 0.0 | 0.0 | 0.00 | 0.01 | 0.00 | 66 | 1011.9 |
| 20260509080506 | 53 | 270 | 0.0 | 1.0 | 0.00 | 0.01 | 0.00 | 66 | 1012.1 |
| 20260509080018 | 53 | 275 | 0.0 | 2.0 | 0.00 | 0.01 | 0.00 | 65 | 1012.1 |
| 20260509075507 | 53 | 275 | 0.0 | 5.0 | 0.00 | 0.01 | 0.00 | 65 | 1012.1 |
| 20260509075007 | 53 | 275 | 1.0 | 5.0 | 0.00 | 0.01 | 0.00 | 65 | 1012.1 |
| 20260509074520 | 54 | 275 | 2.0 | 5.0 | 0.00 | 0.01 | 0.00 | 65 | 1012.1 |
| 20260509074008 | 54 | 280 | 0.0 | 3.0 | 0.00 | 0.01 | 0.00 | 64 | 1012.3 |
| 20260509073510 | 54 | 280 | 1.0 | 3.0 | 0.00 | 0.01 | 0.00 | 64 | 1012.3 |
| 20260509073025 | 54 | 286 | 0.0 | 2.0 | 0.00 | 0.01 | 0.00 | 63 | 1012.2 |
| 20260509072510 | 54 | 286 | 0.0 | 2.0 | 0.00 | 0.01 | 0.00 | 63 | 1012.3 |
| 20260509072016 | 54 | 270 | 0.0 | 3.0 | 0.00 | 0.01 | 0.00 | 63 | 1012.4 |
| 20260509071524 | 55 | 270 | 0.0 | 4.0 | 0.00 | 0.01 | 0.00 | 63 | 1012.5 |
| 20260509071012 | 55 | 270 | 0.0 | 4.0 | 0.00 | 0.01 | 0.00 | 63 | 1012.5 |
| 20260509070510 | 55 | 270 | 0.0 | 6.0 | 0.00 | 0.01 | 0.00 | 62 | 1012.7 |
| 20260509070015 | 55 | 270 | 0.0 | 6.0 | 0.00 | 0.01 | 0.00 | 62 | 1012.7 |
| 20260509065505 | 55 | 270 | 3.0 | 6.0 | 0.00 | 0.01 | 0.00 | 62 | 1012.7 |
| 20260509065006 | 55 | 270 | 1.0 | 5.0 | 0.00 | 0.01 | 0.00 | 63 | 1012.5 |
| 20260509064520 | 55 | 270 | 2.0 | 5.0 | 0.00 | 0.01 | 0.00 | 63 | 1012.4 |
| 20260509064010 | 55 | 270 | 0.0 | 4.0 | 0.00 | 0.01 | 0.00 | 63 | 1012.5 |
| 20260509063514 | 55 | 270 | 1.0 | 4.0 | 0.00 | 0.01 | 0.00 | 63 | 1012.5 |
| 20260509063027 | 55 | 270 | 0.0 | 3.0 | 0.00 | 0.01 | 0.00 | 63 | 1012.5 |
| 20260509062510 | 55 | 270 | 0.0 | 3.0 | 0.00 | 0.01 | 0.00 | 63 | 1012.8 |
| 20260509062009 | 55 | 270 | 0.0 | 3.0 | 0.00 | 0.01 | 0.00 | 63 | 1012.8 |
| 20260509061528 | 55 | 270 | 0.0 | 3.0 | 0.00 | 0.01 | 0.00 | 62 | 1013.1 |
| 20260509061007 | 55 | 270 | 0.0 | 3.0 | 0.00 | 0.01 | 0.00 | 61 | 1013.1 |
| 20260509060512 | 55 | 270 | 1.0 | 3.0 | 0.00 | 0.01 | 0.00 | 63 | 1013.3 |
| 20260509060030 | 55 | 270 | 0.0 | 3.0 | 0.00 | 0.01 | 0.00 | 62 | 1013.3 |
| 20260509055511 | 56 | 270 | 0.0 | 2.0 | 0.00 | 0.01 | 0.01 | 63 | 1013.3 |
| 20260509055015 | 56 | 270 | 0.0 | 1.0 | 0.00 | 0.01 | 0.01 | 61 | 1013.5 |
| 20260509054517 | 56 | 270 | 0.0 | 2.0 | 0.00 | 0.01 | 0.01 | 61 | 1013.6 |
| 20260509054009 | 56 | 270 | 0.0 | 3.0 | 0.00 | 0.01 | 0.01 | 61 | 1013.6 |
| 20260509053510 | 56 | 270 | 0.0 | 3.0 | 0.00 | 0.01 | 0.01 | 61 | 1013.8 |
| 20260509053018 | 56 | 270 | 1.0 | 3.0 | 0.00 | 0.01 | 0.01 | 61 | 1013.8 |
| 20260509052507 | 56 | 270 | 0.0 | 2.0 | 0.00 | 0.01 | 0.01 | 63 | 1013.7 |
| 20260509052012 | 56 | 270 | 0.0 | 1.0 | 0.00 | 0.01 | 0.01 | 62 | 1013.8 |
| 20260509051521 | 56 | 270 | 0.0 | 1.0 | 0.00 | 0.01 | 0.01 | 61 | 1013.9 |
| 20260509051009 | 56 | 270 | 0.0 | 2.0 | 0.00 | 0.01 | 0.01 | 61 | 1013.9 |
| 20260509050510 | 56 | 270 | 0.0 | 2.0 | 0.00 | 0.01 | 0.01 | 60 | 1013.9 |
| 20260509050043 | 56 | 270 | 0.0 | 3.0 | 0.00 | 0.01 | 0.01 | 60 | 1014.0 |
| 20260509045512 | 56 | 270 | 0.0 | 3.0 | 0.00 | 0.01 | 0.01 | 61 | 1014.1 |
| 20260509045014 | 57 | 270 | 0.0 | 0.0 | 0.00 | 0.01 | 0.01 | 62 | 1014.1 |
| 20260509044527 | 57 | 270 | 0.0 | 0.0 | 0.00 | 0.01 | 0.01 | 62 | 1014.1 |
| 20260509044010 | 57 | 270 | 0.0 | 0.0 | 0.00 | 0.01 | 0.01 | 61 | 1014.1 |
| 20260509043508 | 57 | 270 | 0.0 | 0.0 | 0.00 | 0.01 | 0.01 | 58 | 1014.1 |
| 20260509043018 | 57 | 270 | 0.0 | 0.0 | 0.00 | 0.01 | 0.01 | 58 | 1014.2 |
| 20260509042508 | 57 | 270 | 0.0 | 0.0 | 0.00 | 0.01 | 0.01 | 58 | 1014.3 |
| 20260509042011 | 58 | 270 | 0.0 | 0.0 | 0.00 | 0.01 | 0.01 | 59 | 1014.3 |
| 20260509041522 | 58 | 270 | 0.0 | 0.0 | 0.00 | 0.01 | 0.01 | 56 | 1014.2 |
| 20260509041011 | 58 | 270 | 0.0 | 1.0 | 0.00 | 0.01 | 0.01 | 56 | 1014.1 |
| 20260509040507 | 58 | 270 | 0.0 | 1.0 | 0.00 | 0.01 | 0.01 | 56 | 1014.1 |
| 20260509040025 | 58 | 270 | 0.0 | 2.0 | 0.00 | 0.01 | 0.01 | 56 | 1014.1 |
| 20260509035513 | 58 | 270 | 0.0 | 2.0 | 0.00 | 0.01 | 0.01 | 56 | 1014.1 |
| 20260509035008 | 58 | 270 | 0.0 | 1.0 | 0.00 | 0.01 | 0.01 | 55 | 1014.0 |
| 20260509034526 | 58 | 270 | 0.0 | 2.0 | 0.00 | 0.01 | 0.01 | 55 | 1013.9 |
| 20260509034009 | 58 | 270 | 0.0 | 2.0 | 0.00 | 0.01 | 0.01 | 56 | 1014.0 |
| 20260509033509 | 58 | 270 | 0.0 | 1.0 | 0.00 | 0.01 | 0.01 | 56 | 1014.0 |
| 20260509033029 | 59 | 270 | 0.0 | 0.0 | 0.00 | 0.01 | 0.01 | 55 | 1014.0 |
| 20260509032513 | 59 | 270 | 0.0 | 1.0 | 0.00 | 0.01 | 0.01 | 55 | 1014.1 |
| 20260509032011 | 59 | 270 | 0.0 | 1.0 | 0.00 | 0.01 | 0.01 | 54 | 1014.0 |
| 20260509031531 | 59 | 270 | 0.0 | 2.0 | 0.00 | 0.01 | 0.01 | 54 | 1013.9 |
| 20260509031012 | 59 | 270 | 0.0 | 2.0 | 0.00 | 0.01 | 0.01 | 53 | 1013.8 |
| 20260509030509 | 60 | 270 | 0.0 | 0.0 | 0.00 | 0.01 | 0.01 | 53 | 1013.9 |
| 20260509030032 | 60 | 270 | 0.0 | 0.0 | 0.00 | 0.01 | 0.01 | 52 | 1013.9 |
| 20260509025510 | 61 | 270 | 0.0 | 0.0 | 0.00 | 0.01 | 0.01 | 53 | 1013.8 |
| 20260509025011 | 61 | 270 | 0.0 | 0.0 | 0.00 | 0.01 | 0.01 | 52 | 1013.8 |
| 20260509024510 | 61 | 270 | 0.0 | 0.0 | 0.00 | 0.01 | 0.01 | 50 | 1013.8 |
| 20260509024009 | 62 | 270 | 0.0 | 1.0 | 0.00 | 0.01 | 0.01 | 50 | 1013.8 |
| 20260509023506 | 62 | 270 | 0.0 | 1.0 | 0.00 | 0.01 | 0.01 | 50 | 1013.9 |
| 20260509023017 | 62 | 270 | 0.0 | 1.0 | 0.00 | 0.01 | 0.01 | 49 | 1013.8 |
| 20260509022513 | 63 | 270 | 0.0 | 0.0 | 0.00 | 0.01 | 0.01 | 48 | 1013.8 |
| 20260509022007 | 63 | 270 | 0.0 | 1.0 | 0.00 | 0.01 | 0.01 | 47 | 1013.8 |
| 20260509021517 | 63 | 270 | 0.0 | 1.0 | 0.00 | 0.01 | 0.01 | 46 | 1013.7 |
| 20260509021008 | 64 | 270 | 0.0 | 1.0 | 0.00 | 0.01 | 0.01 | 45 | 1013.7 |
| 20260509020510 | 64 | 286 | 0.0 | 1.0 | 0.00 | 0.01 | 0.01 | 44 | 1013.7 |
| 20260509020020 | 64 | 286 | 0.0 | 2.0 | 0.00 | 0.01 | 0.01 | 44 | 1013.7 |
| 20260509015508 | 64 | 286 | 0.0 | 2.0 | 0.00 | 0.01 | 0.01 | 44 | 1013.6 |
| 20260509015004 | 65 | 270 | 0.0 | 1.0 | 0.00 | 0.01 | 0.01 | 43 | 1013.6 |
| 20260509014506 | 65 | 270 | 0.0 | 2.0 | 0.00 | 0.01 | 0.01 | 42 | 1013.5 |
| 20260509014004 | 65 | 270 | 0.0 | 2.0 | 0.00 | 0.01 | 0.01 | 42 | 1013.5 |
| 20260509013504 | 66 | 287 | 0.0 | 2.0 | 0.00 | 0.01 | 0.01 | 41 | 1013.5 |
| 20260509013022 | 66 | 287 | 0.0 | 2.0 | 0.00 | 0.01 | 0.01 | 40 | 1013.5 |
| 20260509012507 | 66 | 286 | 0.0 | 2.0 | 0.00 | 0.01 | 0.01 | 40 | 1013.4 |
| 20260509012007 | 67 | 286 | 0.0 | 2.0 | 0.00 | 0.01 | 0.01 | 40 | 1013.5 |
| 20260509011514 | 67 | 286 | 0.0 | 2.0 | 0.00 | 0.01 | 0.01 | 39 | 1013.5 |
| 20260509011012 | 67 | 275 | 0.0 | 4.0 | 0.00 | 0.01 | 0.01 | 38 | 1013.5 |
| 20260509010509 | 67 | 287 | 1.0 | 4.0 | 0.00 | 0.01 | 0.01 | 38 | 1013.5 |
| 20260509010023 | 67 | 285 | 1.0 | 4.0 | 0.00 | 0.01 | 0.01 | 38 | 1013.5 |
| 20260509005507 | 68 | 286 | 0.0 | 3.0 | 0.00 | 0.01 | 0.01 | 37 | 1013.3 |
| 20260509005011 | 68 | 286 | 1.0 | 4.0 | 0.00 | 0.01 | 0.01 | 37 | 1013.4 |
| 20260509004529 | 68 | 285 | 1.0 | 4.0 | 0.00 | 0.01 | 0.01 | 37 | 1013.4 |
| 20260509004013 | 69 | 286 | 1.0 | 4.0 | 0.00 | 0.01 | 0.01 | 36 | 1013.4 |
| 20260509003504 | 70 | 206 | 0.0 | 7.0 | 0.00 | 0.01 | 0.01 | 36 | 1013.4 |
| 20260509003010 | 70 | 160 | 1.0 | 7.0 | 0.00 | 0.01 | 0.01 | 35 | 1013.4 |
| 20260509002503 | 70 | 40 | 1.0 | 4.0 | 0.00 | 0.01 | 0.01 | 35 | 1013.4 |
| 20260509002012 | 70 | 42 | 1.0 | 4.0 | 0.00 | 0.01 | 0.01 | 35 | 1013.4 |
| 20260509001514 | 70 | 44 | 1.0 | 7.0 | 0.00 | 0.01 | 0.01 | 36 | 1013.4 |
| 20260509001008 | 70 | 133 | 2.0 | 7.0 | 0.00 | 0.01 | 0.01 | 36 | 1013.5 |
| 20260509000507 | 70 | 216 | 1.0 | 6.0 | 0.00 | 0.01 | 0.01 | 35 | 1013.5 |
| 20260509000016 | 70 | 234 | 1.0 | 5.0 | 0.00 | 0.01 | 0.01 | 35 | 1013.5 |
| 20260508235508 | 70 | 98 | 1.0 | 5.0 | 0.00 | 0.01 | 0.01 | 36 | 1013.5 |
| 20260508235011 | 70 | 223 | 1.0 | 5.0 | 0.00 | 0.01 | 0.01 | 36 | 1013.4 |
| 20260508234523 | 70 | 147 | 1.0 | 5.0 | 0.00 | 0.01 | 0.01 | 36 | 1013.4 |
| 20260508234008 | 70 | 207 | 0.0 | 4.0 | 0.00 | 0.01 | 0.01 | 36 | 1013.4 |
| 20260508233510 | 71 | 202 | 1.0 | 5.0 | 0.00 | 0.01 | 0.01 | 36 | 1013.4 |
| 20260508233022 | 71 | 296 | 1.0 | 7.0 | 0.00 | 0.01 | 0.01 | 36 | 1013.5 |
| 20260508232504 | 71 | 175 | 2.0 | 7.0 | 0.00 | 0.01 | 0.01 | 36 | 1013.4 |
| 20260508232003 | 71 | 219 | 2.0 | 5.0 | 0.00 | 0.01 | 0.01 | 36 | 1013.4 |
| 20260508231513 | 71 | 196 | 1.0 | 9.0 | 0.00 | 0.01 | 0.01 | 36 | 1013.5 |
| 20260508231007 | 71 | 275 | 1.0 | 9.0 | 0.00 | 0.01 | 0.01 | 36 | 1013.5 |
| 20260508230504 | 70 | 173 | 2.0 | 7.0 | 0.00 | 0.01 | 0.01 | 38 | 1013.5 |
| 20260508230015 | 71 | 231 | 2.0 | 6.0 | 0.00 | 0.01 | 0.01 | 37 | 1013.5 |
| 20260508225507 | 71 | 201 | 2.0 | 7.0 | 0.00 | 0.01 | 0.01 | 37 | 1013.5 |
| 20260508225009 | 71 | 111 | 0.0 | 7.0 | 0.00 | 0.01 | 0.01 | 37 | 1013.5 |
| 20260508224520 | 71 | 224 | 2.0 | 7.0 | 0.00 | 0.01 | 0.01 | 36 | 1013.5 |
| 20260508224013 | 71 | 199 | 0.0 | 3.0 | 0.00 | 0.01 | 0.01 | 34 | 1013.5 |
| 20260508223510 | 71 | 174 | 0.0 | 3.0 | 0.00 | 0.01 | 0.01 | 34 | 1013.5 |
| 20260508223033 | 72 | 158 | 1.0 | 4.0 | 0.00 | 0.01 | 0.01 | 34 | 1013.5 |
| 20260508222510 | 73 | 254 | 1.0 | 7.0 | 0.00 | 0.01 | 0.01 | 35 | 1013.5 |
| 20260508222012 | 73 | 187 | 1.0 | 7.0 | 0.00 | 0.01 | 0.01 | 34 | 1013.5 |
| 20260508221531 | 73 | 236 | 0.0 | 4.0 | 0.00 | 0.01 | 0.01 | 33 | 1013.5 |
| 20260508221004 | 73 | 56 | 0.0 | 5.0 | 0.00 | 0.01 | 0.01 | 32 | 1013.5 |
| 20260508220503 | 74 | 50 | 1.0 | 5.0 | 0.00 | 0.01 | 0.01 | 33 | 1013.6 |
| 20260508220023 | 73 | 310 | 1.0 | 5.0 | 0.00 | 0.01 | 0.01 | 34 | 1013.7 |
| 20260508215509 | 73 | 44 | 2.0 | 7.0 | 0.00 | 0.01 | 0.01 | 33 | 1013.7 |
| 20260508215010 | 73 | 343 | 1.0 | 7.0 | 0.00 | 0.01 | 0.01 | 33 | 1013.8 |
| 20260508214518 | 74 | 63 | 2.0 | 7.0 | 0.00 | 0.01 | 0.01 | 34 | 1013.7 |
| 20260508214007 | 74 | 283 | 2.0 | 5.0 | 0.00 | 0.01 | 0.01 | 32 | 1013.7 |
| 20260508213507 | 74 | 98 | 1.0 | 5.0 | 0.00 | 0.01 | 0.01 | 32 | 1013.7 |
| 20260508213028 | 74 | 77 | 3.0 | 5.0 | 0.00 | 0.01 | 0.01 | 34 | 1013.7 |
| 20260508212508 | 74 | 23 | 1.0 | 5.0 | 0.00 | 0.01 | 0.01 | 33 | 1013.8 |
| 20260508212012 | 74 | 41 | 1.0 | 4.0 | 0.00 | 0.01 | 0.01 | 33 | 1013.8 |
| 20260508211532 | 73 | 282 | 1.0 | 4.0 | 0.00 | 0.01 | 0.01 | 35 | 1013.8 |
| 20260508211012 | 74 | 200 | 1.0 | 7.0 | 0.00 | 0.01 | 0.01 | 37 | 1013.9 |
| 20260508210508 | 74 | 150 | 2.0 | 7.0 | 0.00 | 0.01 | 0.01 | 38 | 1013.9 |
| 20260508210010 | 74 | 275 | 1.0 | 7.0 | 0.00 | 0.01 | 0.01 | 36 | 1014.1 |
| 20260508205507 | 74 | 275 | 2.0 | 7.0 | 0.00 | 0.01 | 0.01 | 36 | 1014.2 |
| 20260508205008 | 73 | 56 | 0.0 | 7.0 | 0.00 | 0.01 | 0.01 | 36 | 1014.2 |
| 20260508204515 | 73 | 44 | 2.0 | 10.0 | 0.00 | 0.01 | 0.01 | 35 | 1014.2 |
| 20260508204008 | 74 | 60 | 3.0 | 10.0 | 0.00 | 0.01 | 0.01 | 36 | 1014.2 |
| 20260508203506 | 74 | 35 | 1.0 | 5.0 | 0.00 | 0.01 | 0.01 | 34 | 1014.1 |
| 20260508203018 | 74 | 233 | 1.0 | 5.0 | 0.00 | 0.01 | 0.01 | 37 | 1014.1 |
| 20260508202509 | 74 | 50 | 0.0 | 7.0 | 0.00 | 0.01 | 0.01 | 35 | 1014.1 |
| 20260508202008 | 74 | 67 | 2.0 | 7.0 | 0.00 | 0.01 | 0.01 | 40 | 1014.3 |
| 20260508201522 | 74 | 81 | 3.0 | 7.0 | 0.00 | 0.01 | 0.01 | 37 | 1014.3 |
| 20260508201013 | 73 | 33 | 0.0 | 7.0 | 0.00 | 0.01 | 0.01 | 38 | 1014.4 |
| 20260508200507 | 72 | 298 | 1.0 | 8.0 | 0.00 | 0.01 | 0.01 | 41 | 1014.5 |
| 20260508200031 | 72 | 291 | 1.0 | 10.0 | 0.00 | 0.01 | 0.01 | 38 | 1014.5 |
| 20260508195511 | 72 | 29 | 4.0 | 10.0 | 0.00 | 0.01 | 0.01 | 37 | 1014.5 |
| 20260508195009 | 72 | 108 | 3.0 | 10.0 | 0.00 | 0.01 | 0.01 | 39 | 1014.6 |
| 20260508194513 | 72 | 36 | 1.0 | 8.0 | 0.00 | 0.01 | 0.01 | 38 | 1014.8 |
| 20260508194005 | 72 | 65 | 1.0 | 6.0 | 0.00 | 0.01 | 0.01 | 38 | 1014.9 |
| 20260508193507 | 72 | 203 | 2.0 | 7.0 | 0.00 | 0.01 | 0.01 | 38 | 1015.0 |
| 20260508193016 | 73 | 202 | 2.0 | 7.0 | 0.00 | 0.01 | 0.01 | 40 | 1015.3 |
| 20260508192509 | 72 | 231 | 1.0 | 5.0 | 0.00 | 0.01 | 0.01 | 40 | 1015.3 |
| 20260508192010 | 72 | 24 | 0.0 | 8.0 | 0.00 | 0.01 | 0.01 | 41 | 1015.3 |
| 20260508191526 | 72 | 54 | 1.0 | 9.0 | 0.00 | 0.01 | 0.01 | 38 | 1015.4 |
| 20260508191011 | 72 | 63 | 3.0 | 9.0 | 0.00 | 0.01 | 0.01 | 39 | 1015.4 |
| 20260508190508 | 70 | 35 | 0.0 | 8.0 | 0.00 | 0.01 | 0.01 | 42 | 1015.5 |
| 20260508190033 | 70 | 289 | 4.0 | 8.0 | 0.00 | 0.01 | 0.01 | 41 | 1015.4 |
| 20260508185511 | 70 | 279 | 2.0 | 5.0 | 0.00 | 0.01 | 0.01 | 41 | 1015.4 |
| 20260508185010 | 71 | 166 | 2.0 | 5.0 | 0.00 | 0.01 | 0.01 | 41 | 1015.6 |
| 20260508184527 | 71 | 48 | 0.0 | 4.0 | 0.00 | 0.01 | 0.01 | 42 | 1015.6 |
| 20260508184012 | 70 | 132 | 0.0 | 6.0 | 0.00 | 0.01 | 0.01 | 41 | 1015.6 |
| 20260508183504 | 70 | 281 | 1.0 | 6.0 | 0.00 | 0.01 | 0.01 | 42 | 1015.7 |
| 20260508183015 | 70 | 322 | 3.0 | 5.0 | 0.00 | 0.01 | 0.01 | 39 | 1015.8 |
| 20260508182509 | 69 | 68 | 2.0 | 4.0 | 0.00 | 0.01 | 0.01 | 40 | 1015.8 |
| 20260508182008 | 69 | 17 | 0.0 | 5.0 | 0.00 | 0.01 | 0.01 | 39 | 1016.0 |
| 20260508181540 | 68 | 316 | 0.0 | 5.0 | 0.00 | 0.01 | 0.01 | 41 | 1016.0 |
| 20260508181011 | 68 | 275 | 1.0 | 5.0 | 0.00 | 0.01 | 0.01 | 40 | 1016.1 |
| 20260508180507 | 68 | 88 | 2.0 | 5.0 | 0.00 | 0.01 | 0.01 | 42 | 1016.2 |
| 20260508180022 | 68 | 161 | 0.0 | 4.0 | 0.00 | 0.01 | 0.01 | 46 | 1016.3 |
| 20260508175510 | 68 | 2 | 1.0 | 4.0 | 0.00 | 0.01 | 0.01 | 43 | 1016.3 |
| 20260508175009 | 67 | 69 | 0.0 | 6.0 | 0.00 | 0.01 | 0.01 | 45 | 1016.4 |
| 20260508174529 | 67 | 356 | 1.0 | 7.0 | 0.00 | 0.01 | 0.01 | 43 | 1016.4 |
| 20260508174009 | 67 | 56 | 2.0 | 7.0 | 0.00 | 0.01 | 0.01 | 46 | 1016.5 |
| 20260508173512 | 67 | 306 | 1.0 | 5.0 | 0.00 | 0.01 | 0.01 | 46 | 1016.6 |
| 20260508173025 | 67 | 211 | 1.0 | 5.0 | 0.00 | 0.01 | 0.01 | 47 | 1016.6 |
| 20260508172510 | 67 | 75 | 0.0 | 4.0 | 0.00 | 0.01 | 0.01 | 46 | 1016.7 |
| 20260508172009 | 66 | 63 | 0.0 | 7.0 | 0.00 | 0.01 | 0.01 | 48 | 1016.7 |
| 20260508171517 | 65 | 354 | 1.0 | 7.0 | 0.00 | 0.01 | 0.01 | 46 | 1016.7 |
| 20260508171012 | 65 | 332 | 0.0 | 5.0 | 0.00 | 0.01 | 0.01 | 46 | 1016.8 |
| 20260508170511 | 64 | 247 | 1.0 | 4.0 | 0.00 | 0.01 | 0.01 | 47 | 1017.0 |
| 20260508170024 | 63 | 71 | 1.0 | 4.0 | 0.00 | 0.01 | 0.01 | 47 | 1017.0 |
| 20260508165510 | 64 | 59 | 0.0 | 3.0 | 0.00 | 0.01 | 0.01 | 49 | 1017.1 |
| 20260508165014 | 63 | 282 | 0.0 | 3.0 | 0.00 | 0.01 | 0.01 | 51 | 1017.1 |